Location: Banff
(51.1670°N, 115.5670°W)
Time: 03:13:58
(UTC-06:00)

Amateur Radio Satellites - All Passes

Search period start: 06 July 2015 02:43
Search period end: 07 July 2015 02:43
Location: Banff, 51.1670°N, 115.5670°W

Satellite Date Start Highest point End Downlink Frequencies (MHz)
Time Altitude Azimuth
POLYITAN 1 06 Jul 02:45:10 02:47:34 15° 302° (WNW) 02:49:50 437.675
BUGSAT 1 06 Jul 02:46:54 02:49:46 18° 300° (WNW) 02:52:32 437.445
TISAT 1 06 Jul 02:47:09 02:49:14 13° 274° (W) 02:51:08 437.305
Cosmos 2491 06 Jul 02:52:05 03:00:49 66° 74° (ENE) 03:09:30 435.465 / 435.565
ITAMSAT 1 06 Jul 02:55:41 02:58:33 15° 85° (E) 03:01:36 435.822/435.867
Gurwin Techsat 1B 06 Jul 02:59:05 03:02:30 18° 86° (E) 03:06:04 435.225
AIST 1 06 Jul 03:01:03 03:05:17 45° 73° (ENE) 03:09:27
KKS-1 06 Jul 03:06:35 03:10:50 45° 68° (ENE) 03:15:05 437.445
SO-50 06 Jul 03:14:22 03:17:57 20° 246° (WSW) 03:21:22 436.795
JAS-2 06 Jul 03:20:23 03:22:41 12° 80° (E) 03:25:31 435.910
YUBILEINY 06 Jul 03:32:11 03:39:59 41° 86° (E) 03:47:58 435.215
MOZHAYETS 4 06 Jul 03:38:28 03:40:55 15° 56° (NE) 03:43:31
AO-7 06 Jul 03:44:14 03:46:08 11° 76° (ENE) 03:48:42 29.400- 29.500
STARS 06 Jul 03:54:06 03:58:30 80° 74° (ENE) 04:02:55 437.465
BEESAT 06 Jul 03:59:41 04:02:46 16° 273° (W) 04:05:41 436.000
SWISSCUBE 06 Jul 04:17:37 04:19:01 11° 277° (W) 04:20:09 437.505
Oscar 19 06 Jul 04:18:32 04:23:23 42° 294° (WNW) 04:28:11 437.125/150
ITUPSAT 1 06 Jul 04:24:05 04:25:14 11° 278° (W) 04:26:07 437.325
RS-15 06 Jul 04:31:02 04:42:03 84° 314° (NW) 04:53:33 29.354- 29.394
ITAMSAT 1 06 Jul 04:33:38 04:38:55 88° 101° (E) 04:44:09 435.822/435.867
Gurwin Techsat 1B 06 Jul 04:37:52 04:43:14 83° 287° (WNW) 04:48:34 435.225
AIST 1 06 Jul 04:39:16 04:42:41 22° 272° (W) 04:45:59
KKS-1 06 Jul 04:43:58 04:47:40 25° 267° (W) 04:51:20 437.445
Cosmos 2491 06 Jul 04:49:32 04:57:15 35° 277° (W) 05:04:46 435.465 / 435.565
JAS-2 06 Jul 05:02:42 05:09:08 58° 100° (E) 05:16:21 435.910
MOZHAYETS 4 06 Jul 05:12:54 05:17:30 85° 72° (ENE) 05:22:09
YUBILEINY 06 Jul 05:28:05 05:36:38 57° 289° (WNW) 05:45:12 435.215
HORYU 2 06 Jul 05:30:12 05:34:35 54° 101° (E) 05:39:00 437.375
STARS 06 Jul 05:33:10 05:35:35 14° 273° (W) 05:37:49 437.465
AO-7 06 Jul 05:33:15 05:41:23 52° 100° (E) 05:49:30 29.400- 29.500
CUBESAT XI-V 06 Jul 05:45:44 05:49:23 23° 61° (ENE) 05:53:09 437.345
STRAND 1 06 Jul 05:48:55 05:51:22 14° 51° (NE) 05:54:01 437.568
Cosmos 2504 06 Jul 05:53:03 05:58:55 32° 85° (E) 06:05:00 435.465 / 435.565
ITAMSAT 1 06 Jul 06:14:11 06:17:49 19° 305° (NW) 06:21:19 435.822/435.867
Gurwin Techsat 1B 06 Jul 06:19:04 06:22:31 17° 306° (NW) 06:25:49 435.225
RS-15 06 Jul 06:45:32 06:56:08 45° 344° (NNW) 07:07:10 29.354- 29.394
PRISM 06 Jul 06:47:13 06:50:44 27° 64° (ENE) 06:54:21 437.425
JAS-2 06 Jul 06:48:14 06:54:04 36° 298° (WNW) 07:00:25 435.910
MOZHAYETS 4 06 Jul 06:52:58 06:55:27 14° 275° (W) 06:57:45
HORYU 2 06 Jul 07:07:25 07:10:57 23° 299° (WNW) 07:14:23 437.375
O/OREOS (USA 219) 06 Jul 07:21:34 07:24:20 17° 102° (ESE) 07:27:16 437.305
CUBESAT XI-V 06 Jul 07:21:51 07:26:31 58° 260° (W) 07:31:12 437.345
CUTE-I 06 Jul 07:22:48 07:27:27 30° 93° (E) 07:32:09 437.470
STRAND 1 06 Jul 07:24:37 07:29:43 66° 71° (ENE) 07:34:53 437.568
AO-7 06 Jul 07:26:16 07:34:15 50° 302° (WNW) 07:42:08 29.400- 29.500
YUBILEINY 06 Jul 07:30:32 07:35:58 17° 316° (NW) 07:41:05 435.215
CUSAT 1 06 Jul 07:37:35 07:41:07 18° 92° (E) 07:44:18 437.405
Cosmos 2504 06 Jul 07:44:01 07:50:48 57° 287° (WNW) 07:57:42 435.465 / 435.565
M-CUBED/EXP-1 PRIME 06 Jul 07:48:38 07:50:45 16° 53° (NE) 07:53:00 437.505
Cubesat XI-IV 06 Jul 07:57:17 08:02:35 55° 100° (E) 08:07:51 437.490
GONETS M04 06 Jul 08:11:56 08:17:11 19° 74° (ENE) 08:22:50
PRISM 06 Jul 08:22:07 08:26:04 38° 262° (W) 08:30:01 437.425
BEESAT 3 06 Jul 08:22:37 08:26:38 60° 127° (SE) 08:30:43 437.485
AIST 2 06 Jul 08:32:27 08:35:32 20° 116° (ESE) 08:38:44 435.215
BEESAT 2 06 Jul 08:37:35 08:41:40 66° 128° (SE) 08:45:48 435.950
AUBIESAT-1 06 Jul 08:45:36 08:48:52 48° 64° (ENE) 08:52:22 437.475
ISS 06 Jul 08:46:07 08:48:31 19° 144° (SE) 08:50:58 145.825
DANDE 06 Jul 08:52:26 08:58:54 57° 99° (E) 09:03:47 436.750
O/OREOS (USA 219) 06 Jul 08:58:50 09:03:17 70° 300° (WNW) 09:07:47 437.305
RS-15 06 Jul 09:00:49 09:11:36 46° 17° (NNE) 09:22:56 29.354- 29.394
VERMONT LUNAR 06 Jul 09:02:18 09:02:53 10° 169° (S) 09:03:30 437.305
CUTE-I 06 Jul 09:02:36 09:07:48 50° 293° (WNW) 09:12:57 437.470
STRAND 1 06 Jul 09:05:30 09:09:27 21° 271° (W) 09:13:18 437.568
GOMX 1 06 Jul 09:07:53 09:10:57 20° 90° (E) 09:14:02 467.674
CUSAT 1 06 Jul 09:17:47 09:23:35 71° 283° (WNW) 09:27:55 437.405
AO-7 06 Jul 09:20:02 09:25:16 18° 326° (NNW) 09:30:15 29.400- 29.500
CUTE 1.7 + AOD 2 06 Jul 09:20:47 09:23:25 16° 87° (E) 09:26:11 437.475
M-CUBED/EXP-1 PRIME 06 Jul 09:21:54 09:25:12 55° 253° (WSW) 09:28:43 437.505
CANX-2 06 Jul 09:24:11 09:27:13 19° 89° (E) 09:30:21 2200.000
HO-68 06 Jul 09:33:07 09:39:15 30° 92° (E) 09:45:29 435.675
Cubesat XI-IV 06 Jul 09:37:50 09:42:27 29° 300° (WNW) 09:46:58 437.490
Cosmos 2504 06 Jul 09:41:33 09:45:00 14° 314° (NW) 09:48:12 435.465 / 435.565
DOVE 4 06 Jul 09:41:50 09:45:21 26° 93° (E) 09:48:54 437.250
BRITE-PL 06 Jul 09:42:09 09:46:32 67° 101° (E) 09:50:41 437.365/2234.400
UNISAT 6 06 Jul 09:43:34 09:45:38 14° 57° (ENE) 09:47:51 437.425
BEESAT 3 06 Jul 10:01:18 10:04:53 28° 327° (NNW) 10:08:28 437.485
GONETS M04 06 Jul 10:03:55 10:12:38 73° 96° (E) 10:21:22
SEEDS 06 Jul 10:04:58 10:08:52 34° 95° (E) 10:12:47 437.485
QB50P1 06 Jul 10:06:36 10:07:24 11° 54° (NE) 10:08:22 145.935-145.965
AIST 2 06 Jul 10:09:28 10:13:44 68° 314° (NW) 10:18:01 435.215
AAUSAT CUBESAT 2 06 Jul 10:11:02 10:14:40 28° 93° (E) 10:18:20 437.432
CINEMA 3 06 Jul 10:12:28 10:15:59 26° 93° (E) 10:19:35 145.822/145.860
DELFI C3 06 Jul 10:14:46 10:15:22 10° 84° (E) 10:16:10 145.870
BEESAT 2 06 Jul 10:16:31 10:20:05 27° 328° (NNW) 10:23:38 435.950
NANOSAT C BR1 06 Jul 10:18:40 10:20:38 13° 57° (ENE) 10:22:45 145.865
ISS 06 Jul 10:21:18 10:24:33 68° 162° (SSE) 10:27:47 145.825
AUBIESAT-1 06 Jul 10:21:54 10:24:02 15° 265° (W) 10:26:08 437.475
DUCHIFAT 1 06 Jul 10:24:31 10:26:47 15° 58° (ENE) 10:29:11 145.980
ANTELSAT 06 Jul 10:26:10 10:29:53 30° 65° (ENE) 10:33:39 437.575/2403.000
POLYITAN 1 06 Jul 10:31:44 10:34:29 18° 60° (ENE) 10:37:21 437.675
BUGSAT 1 06 Jul 10:32:53 10:34:34 12° 56° (ENE) 10:36:26 437.445
DANDE 06 Jul 10:36:56 10:42:13 27° 292° (WNW) 10:46:21 436.750
TIGRISAT 06 Jul 10:37:21 10:41:15 36° 67° (ENE) 10:45:11 435.000
VERMONT LUNAR 06 Jul 10:37:45 10:38:59 12° 185° (S) 10:40:11 437.305
COMPASS 1 06 Jul 10:38:40 10:42:52 59° 101° (E) 10:47:03 437.405
ZACube-1 06 Jul 10:40:38 10:43:24 17° 89° (E) 10:46:19 437.345
O/OREOS (USA 219) 06 Jul 10:40:57 10:43:37 15° 323° (NW) 10:46:11 437.305
Oscar 11 06 Jul 10:44:12 10:48:01 29° 94° (E) 10:51:51 145.826/435.025
CUTE-I 06 Jul 10:45:05 10:46:48 11° 313° (NW) 10:48:18 437.470
GOMX 1 06 Jul 10:45:21 10:49:28 49° 290° (WNW) 10:53:28 467.674
CUBEBUG 2 06 Jul 10:46:52 10:50:33 29° 94° (E) 10:54:20 437.445
Cosmos 2499 06 Jul 10:47:24 10:53:17 31° 84° (E) 10:59:27 435.465 / 435.565
CUTE 1.7 + AOD 2 06 Jul 10:55:33 10:59:49 66° 287° (WNW) 11:04:04 437.475
CANX-2 06 Jul 10:59:17 11:03:30 56° 289° (WNW) 11:07:42 2200.000
QB50P2 06 Jul 10:59:58 11:03:40 30° 65° (ENE) 11:07:23 145.880/145.840
POPSAT HIP 1 06 Jul 11:00:11 11:03:50 29° 65° (ENE) 11:07:32 437.405
CUSAT 1 06 Jul 11:05:05 11:06:40 11° 300° (WNW) 11:07:56 437.405
RS-15 06 Jul 11:14:10 11:25:48 83° 46° (NE) 11:37:58 29.354- 29.394
FUNcube-1 06 Jul 11:15:07 11:19:00 34° 96° (E) 11:22:56 145.935
UNISAT 6 06 Jul 11:17:33 11:21:50 89° 90° (E) 11:26:09 437.425
DOVE 4 06 Jul 11:19:25 11:23:16 36° 293° (WNW) 11:27:03 437.250
HO-68 06 Jul 11:20:28 11:27:36 68° 293° (WNW) 11:34:41 435.675
BRITE-PL 06 Jul 11:21:41 11:24:37 17° 302° (WNW) 11:27:20 437.365/2234.400
PHONESAT 2.4 06 Jul 11:24:55 11:26:50 14° 177° (S) 11:28:45 2401.200-2431.200
UWE-3 06 Jul 11:33:14 11:37:26 67° 102° (ESE) 11:41:43 435.000/436.395/437.385
QB50P1 06 Jul 11:38:19 11:42:31 66° 72° (ENE) 11:46:44 145.935-145.965
50 SAT 06 Jul 11:40:24 11:42:45 16° 89° (E) 11:45:13 437.505
SEEDS 06 Jul 11:40:51 11:44:37 31° 294° (WNW) 11:48:21 437.485
BEESAT 3 06 Jul 11:42:04 11:44:06 13° 350° (N) 11:46:06 437.485
AAUSAT CUBESAT 2 06 Jul 11:46:28 11:50:21 36° 292° (WNW) 11:54:13 437.432
DELFI C3 06 Jul 11:47:04 11:51:11 86° 103° (ESE) 11:55:16 145.870
CINEMA 3 06 Jul 11:49:28 11:53:20 37° 292° (WNW) 11:57:13 145.822/145.860
AIST 2 06 Jul 11:49:50 11:53:03 20° 336° (NNW) 11:56:14 435.215
ESTCUBE 1 06 Jul 11:51:03 11:53:19 14° 86° (E) 11:55:47 437.505/2401.250
NANOSAT C BR1 06 Jul 11:51:38 11:55:53 87° 72° (ENE) 12:00:07 145.865
BEESAT 2 06 Jul 11:57:25 11:59:26 13° 352° (N) 12:01:26 435.950
ISS 06 Jul 11:57:41 12:00:57 80° 1° (N) 12:04:12 145.825
DUCHIFAT 1 06 Jul 11:57:49 12:02:04 84° 259° (WSW) 12:06:19 145.980
VELOX 1 06 Jul 11:59:04 12:02:30 22° 91° (E) 12:06:00 145.980
DX 1 06 Jul 11:59:58 12:04:01 36° 97° (E) 12:08:02 434.975-435.025
GONETS M04 06 Jul 12:02:35 12:10:24 33° 300° (WNW) 12:18:03
ANTELSAT 06 Jul 12:02:43 12:06:38 34° 264° (W) 12:10:33 437.575/2403.000
BUGSAT 1 06 Jul 12:05:13 12:09:26 81° 74° (ENE) 12:13:38 437.445
POLYITAN 1 06 Jul 12:05:45 12:09:59 67° 258° (WSW) 12:14:12 437.675
TIGRISAT 06 Jul 12:14:24 12:18:06 28° 266° (W) 12:21:46 435.000
COMPASS 1 06 Jul 12:15:07 12:18:10 19° 299° (WNW) 12:21:10 437.405
ZACube-1 06 Jul 12:16:01 12:20:11 60° 288° (WNW) 12:24:25 437.345
HUMSAT D 06 Jul 12:17:06 12:21:16 68° 102° (ESE) 12:25:27 437.325/437.525
UKube-1 06 Jul 12:17:30 12:21:43 49° 100° (E) 12:25:55 .
Oscar 11 06 Jul 12:20:15 12:24:16 37° 293° (WNW) 12:28:15 145.826/435.025
CUBEBUG 2 06 Jul 12:23:29 12:27:19 34° 293° (WNW) 12:31:10 437.445
Oscar 19 06 Jul 12:24:42 12:27:37 16° 53° (NE) 12:30:41 437.125/150
CUTE 1.7 + AOD 2 06 Jul 12:33:53 12:34:59 11° 306° (NW) 12:35:53 437.475
QB50P2 06 Jul 12:35:36 12:39:30 34° 264° (W) 12:43:24 145.880/145.840
POPSAT HIP 1 06 Jul 12:35:43 12:39:39 35° 264° (W) 12:43:33 437.405
Cosmos 2499 06 Jul 12:39:02 12:46:00 61° 286° (WNW) 12:53:14 435.465 / 435.565
AISAT 06 Jul 12:46:20 12:50:44 62° 101° (E) 12:55:06 437.250
FUNcube-1 06 Jul 12:51:35 12:55:17 30° 294° (WNW) 12:58:58 145.935
CUBEBUG 1 06 Jul 12:57:20 13:01:34 46° 98° (E) 13:05:45 437.445
UNISAT 6 06 Jul 12:57:45 12:59:22 12° 275° (W) 13:00:48 437.425
AO-7 06 Jul 13:00:18 13:03:37 13° 23° (NNE) 13:07:10 29.400- 29.500
PHONESAT 2.4 06 Jul 13:02:51 13:04:00 11° 194° (SSW) 13:05:07 2401.200-2431.200
HO-68 06 Jul 13:09:17 13:14:14 20° 315° (NW) 13:19:01 435.675
UWE-3 06 Jul 13:10:45 13:13:35 17° 300° (WNW) 13:16:20 435.000/436.395/437.385
50 SAT 06 Jul 13:13:54 13:17:46 58° 288° (WNW) 13:21:37 437.505
QB50P1 06 Jul 13:16:11 13:18:52 16° 272° (W) 13:21:25 145.935-145.965
BEESAT 3 06 Jul 13:21:22 13:23:37 14° 14° (NNE) 13:25:55 437.485
DELFI C3 06 Jul 13:23:37 13:25:43 14° 302° (WNW) 13:27:41 145.870
ESTCUBE 1 06 Jul 13:26:18 13:30:54 84° 284° (WNW) 13:35:26 437.505/2401.250
RS-15 06 Jul 13:27:04 13:37:28 38° 250° (WSW) 13:47:58 29.354- 29.394
NANOSAT C BR1 06 Jul 13:30:39 13:32:24 12° 275° (W) 13:33:57 145.865
AIST 2 06 Jul 13:31:05 13:33:08 13° 360° (N) 13:35:10 435.215
ISS 06 Jul 13:34:07 13:37:18 53° 202° (SSW) 13:40:29 145.825
YUBILEINY 06 Jul 13:34:53 13:42:07 28° 56° (NE) 13:49:33 435.215
VELOX 1 06 Jul 13:35:03 13:39:21 49° 291° (WNW) 13:43:36 145.980
DX 1 06 Jul 13:36:22 13:40:12 30° 296° (WNW) 13:43:58 434.975-435.025
BEESAT 2 06 Jul 13:36:41 13:39:05 15° 15° (NNE) 13:41:31 435.950
DUCHIFAT 1 06 Jul 13:37:38 13:38:38 11° 276° (W) 13:39:25 145.980
BUGSAT 1 06 Jul 13:43:30 13:45:31 13° 274° (W) 13:47:21 437.445
SPROUT 06 Jul 13:50:48 13:55:00 50° 99° (E) 13:59:10 437.525
HUMSAT D 06 Jul 13:53:50 13:56:36 17° 300° (WNW) 13:59:15 437.325/437.525
UKube-1 06 Jul 13:54:07 13:57:36 23° 298° (WNW) 14:00:59 .
Oscar 19 06 Jul 14:01:07 14:06:15 78° 74° (ENE) 14:11:25 437.125/150
Cosmos 2491 06 Jul 14:08:28 14:12:41 15° 71° (ENE) 14:17:23 435.465 / 435.565
BEESAT 06 Jul 14:16:02 14:18:24 14° 85° (E) 14:21:00 436.000
ITAMSAT 1 06 Jul 14:18:00 14:22:48 39° 64° (ENE) 14:27:39 435.822/435.867
TISAT 1 06 Jul 14:23:32 14:27:45 72° 103° (ESE) 14:31:55 437.305
AISAT 06 Jul 14:23:41 14:26:57 20° 300° (WNW) 14:30:06 437.250
Gurwin Techsat 1B 06 Jul 14:24:46 14:29:46 44° 66° (ENE) 14:34:50 435.225
SWISSCUBE 06 Jul 14:31:11 14:34:42 20° 89° (E) 14:38:20 437.505
CUBEBUG 1 06 Jul 14:34:07 14:37:43 25° 297° (WNW) 14:41:13 437.445
Cosmos 2499 06 Jul 14:37:03 14:41:09 15° 313° (NW) 14:45:03 435.465 / 435.565
ITUPSAT 1 06 Jul 14:37:33 14:41:10 21° 90° (E) 14:44:52 437.325
AO-7 06 Jul 14:46:54 14:53:57 33° 49° (NE) 15:01:09 29.400- 29.500
BEESAT 3 06 Jul 14:58:54 15:02:42 35° 37° (NE) 15:06:27 437.485
HORYU 2 06 Jul 14:59:10 15:01:40 15° 56° (ENE) 15:04:18 437.375
ESTCUBE 1 06 Jul 15:04:37 15:07:07 14° 304° (NW) 15:09:28 437.505/2401.250
PCSat 06 Jul 15:05:22 15:06:56 11° 103° (ESE) 15:08:48 145.827
AIST 2 06 Jul 15:10:03 15:13:12 20° 24° (NNE) 15:16:23 435.215
ISS 06 Jul 15:11:22 15:13:11 14° 220° (SW) 15:14:57 145.825
BEESAT 2 06 Jul 15:14:20 15:18:13 38° 38° (NE) 15:22:04 435.950
JAS-2 06 Jul 15:21:36 15:26:27 40° 63° (ENE) 15:31:42 435.910
SPROUT 06 Jul 15:27:27 15:30:48 22° 298° (WNW) 15:34:04 437.525
YUBILEINY 06 Jul 15:31:25 15:40:14 85° 260° (W) 15:49:01 435.215
Cosmos 2504 06 Jul 15:31:33 15:36:00 17° 51° (NE) 15:40:55 435.465 / 435.565
AIST 1 06 Jul 15:36:40 15:39:56 21° 87° (E) 15:43:18
STARS 06 Jul 15:41:56 15:41:59 10° 83° (E) 15:42:18 437.465
Oscar 19 06 Jul 15:42:48 15:46:18 18° 273° (W) 15:49:38 437.125/150
O/OREOS (USA 219) 06 Jul 15:45:52 15:48:46 17° 39° (NE) 15:51:45 437.305
BEESAT 06 Jul 15:52:11 15:57:02 90° 292° (WNW) 16:01:51 436.000
ITAMSAT 1 06 Jul 15:57:28 16:02:20 38° 264° (W) 16:07:13 435.822/435.867
Cosmos 2491 06 Jul 15:59:16 16:07:52 62° 93° (E) 16:16:32 435.465 / 435.565
TISAT 1 06 Jul 16:00:23 16:03:03 16° 301° (WNW) 16:05:37 437.305
Gurwin Techsat 1B 06 Jul 16:05:07 16:09:55 33° 266° (W) 16:14:42 435.225
SWISSCUBE 06 Jul 16:08:15 16:13:01 62° 290° (WNW) 16:17:46 437.505
ITUPSAT 1 06 Jul 16:14:43 16:19:30 60° 289° (WNW) 16:24:14 437.325
KKS-1 06 Jul 16:28:49 16:33:04 43° 98° (E) 16:37:19 437.445
HORYU 2 06 Jul 16:33:19 16:37:44 87° 255° (WSW) 16:42:12 437.375
BEESAT 3 06 Jul 16:36:52 16:40:43 40° 237° (WSW) 16:44:29 437.485
AO-7 06 Jul 16:37:41 16:46:04 83° 251° (WSW) 16:54:32 29.400- 29.500
PCSat 06 Jul 16:44:05 16:49:25 63° 122° (ESE) 16:54:49 145.827
AIST 2 06 Jul 16:48:16 16:52:31 69° 46° (NE) 16:56:41 435.215
BEESAT 2 06 Jul 16:52:29 16:56:17 36° 238° (WSW) 17:00:00 435.950
MOZHAYETS 4 06 Jul 17:04:05 17:06:39 15° 86° (E) 17:09:24
JAS-2 06 Jul 17:06:54 17:11:44 36° 266° (W) 17:16:50 435.910
CUTE-I 06 Jul 17:12:30 17:15:41 17° 53° (NE) 17:19:02 437.470
AIST 1 06 Jul 17:13:00 17:17:18 49° 286° (WNW) 17:21:37
STARS 06 Jul 17:14:55 17:19:19 77° 104° (ESE) 17:23:41 437.465
Cosmos 2504 06 Jul 17:22:31 17:29:54 65° 75° (ENE) 17:37:51 435.465 / 435.565
O/OREOS (USA 219) 06 Jul 17:24:25 17:28:59 81° 61° (ENE) 17:33:32 437.305
YUBILEINY 06 Jul 17:29:30 17:35:56 23° 283° (WNW) 17:42:03 435.215
BEESAT 06 Jul 17:31:13 17:34:16 17° 305° (NW) 17:37:10 436.000
SO-50 06 Jul 17:32:04 17:36:35 44° 122° (ESE) 17:41:17 436.795
Cubesat XI-IV 06 Jul 17:45:50 17:50:16 27° 60° (ENE) 17:54:48 437.490
SWISSCUBE 06 Jul 17:48:07 17:50:02 12° 309° (NW) 17:51:46 437.505
ITUPSAT 1 06 Jul 17:54:43 17:56:31 12° 309° (NW) 17:58:08 437.325
Cosmos 2491 06 Jul 17:57:09 18:05:19 39° 297° (WNW) 18:13:25 435.465 / 435.565
KKS-1 06 Jul 18:05:48 18:09:33 26° 297° (WNW) 18:13:12 437.445
GONETS M04 06 Jul 18:12:11 18:16:22 14° 40° (NE) 18:20:57
HORYU 2 06 Jul 18:13:25 18:15:10 12° 275° (W) 18:16:42 437.375
HO-68 06 Jul 18:24:54 18:27:40 13° 36° (NE) 18:30:40 435.675
AIST 2 06 Jul 18:27:37 18:30:40 19° 245° (WSW) 18:33:36 435.215
PCSat 06 Jul 18:28:17 18:33:14 34° 323° (NW) 18:38:10 145.827
AO-7 06 Jul 18:34:01 18:40:19 22° 274° (W) 18:46:18 29.400- 29.500
MOZHAYETS 4 06 Jul 18:39:52 18:44:33 81° 285° (WNW) 18:49:12
CUTE-I 06 Jul 18:49:38 18:55:00 77° 73° (ENE) 19:00:25 437.470
STARS 06 Jul 18:52:26 18:55:16 17° 302° (WNW) 18:57:59 437.465
O/OREOS (USA 219) 06 Jul 19:05:13 19:07:51 15° 259° (W) 19:10:19 437.305
SO-50 06 Jul 19:12:36 19:17:13 42° 323° (NW) 19:21:57 436.795
CUBESAT XI-V 06 Jul 19:13:41 19:17:34 26° 91° (E) 19:21:30 437.345
Cosmos 2504 06 Jul 19:15:17 19:21:45 32° 275° (W) 19:28:27 435.465 / 435.565
BRITE-PL 06 Jul 19:20:21 19:24:22 23° 62° (ENE) 19:28:16 437.365/2234.400
Cubesat XI-IV 06 Jul 19:24:46 19:30:04 59° 259° (WSW) 19:35:26 437.490
DANDE 06 Jul 19:28:59 19:31:50 41° 72° (ENE) 19:34:20 436.750
STRAND 1 06 Jul 19:31:14 19:34:06 15° 85° (E) 19:37:09 437.568
CUSAT 1 06 Jul 19:50:04 19:52:41 48° 262° (W) 19:55:12 437.405
PRISM 06 Jul 19:59:31 20:02:41 21° 91° (E) 20:05:54 437.425
COMPASS 1 06 Jul 20:02:16 20:03:45 12° 56° (NE) 20:05:23 437.405
Cosmos 2491 06 Jul 20:02:32 20:05:37 12° 326° (NW) 20:08:19 435.465 / 435.565
HO-68 06 Jul 20:07:08 20:13:39 41° 58° (ENE) 20:20:15 435.675
GONETS M04 06 Jul 20:07:44 20:16:07 49° 68° (ENE) 20:24:29
PCSat 06 Jul 20:14:54 20:18:18 16° 348° (NNW) 20:21:39 145.827
CUTE 1.7 + AOD 2 06 Jul 20:18:31 20:21:47 23° 63° (ENE) 20:25:10 437.475
MOZHAYETS 4 06 Jul 20:18:34 20:21:07 14° 304° (NW) 20:23:30
GOMX 1 06 Jul 20:20:13 20:24:52 43° 69° (ENE) 20:29:16 467.674
CANX-2 06 Jul 20:22:00 20:25:30 26° 64° (ENE) 20:29:06 2200.000
Cosmos 2499 06 Jul 20:30:07 20:35:10 19° 51° (NE) 20:40:44 435.465 / 435.565
CUTE-I 06 Jul 20:31:53 20:35:46 19° 272° (W) 20:39:30 437.470
CUBESAT XI-V 06 Jul 20:50:44 20:55:16 47° 291° (WNW) 20:59:43 437.345
DOVE 4 06 Jul 20:51:57 20:56:31 52° 71° (ENE) 21:00:52 437.250
SO-50 06 Jul 20:55:25 20:58:58 19° 347° (NNW) 21:02:33 436.795
BRITE-PL 06 Jul 20:57:17 21:02:36 65° 259° (WSW) 21:07:32 437.365/2234.400
UWE-3 06 Jul 21:01:19 21:03:34 15° 58° (ENE) 21:05:57 435.000/436.395/437.385
SEEDS 06 Jul 21:01:48 21:05:48 45° 69° (ENE) 21:09:51 437.485
DELFI C3 06 Jul 21:06:17 21:08:26 14° 59° (ENE) 21:10:43 145.870
AAUSAT CUBESAT 2 06 Jul 21:06:36 21:10:24 36° 68° (ENE) 21:14:16 437.432
STRAND 1 06 Jul 21:08:56 21:14:08 90° 20° (NNE) 21:19:17 437.568
CINEMA 3 06 Jul 21:19:03 21:23:14 45° 70° (ENE) 21:27:19 145.822/145.860
DX 1 06 Jul 21:28:15 21:29:07 11° 52° (NE) 21:30:10 434.975-435.025
PRISM 06 Jul 21:34:19 21:38:24 49° 291° (WNW) 21:42:26 437.425
COMPASS 1 06 Jul 21:34:36 21:38:45 78° 75° (ENE) 21:42:58 437.405
HUMSAT D 06 Jul 21:40:44 21:42:37 13° 57° (ENE) 21:44:39 437.325/437.525
ZACube-1 06 Jul 21:41:34 21:45:00 26° 64° (ENE) 21:48:29 437.345
Oscar 11 06 Jul 21:43:47 21:47:50 43° 69° (ENE) 21:51:57 145.826/435.025
UKube-1 06 Jul 21:43:51 21:45:52 13° 55° (NE) 21:48:02 .
CUBEBUG 2 06 Jul 21:50:04 21:54:06 46° 70° (ENE) 21:58:07 437.445
CUTE 1.7 + AOD 2 06 Jul 21:53:23 21:57:28 47° 261° (W) 22:01:35 437.475
HO-68 06 Jul 21:54:17 22:01:16 55° 259° (W) 22:08:17 435.675
AUBIESAT-1 06 Jul 21:55:11 21:58:15 20° 97° (E) 22:01:35 437.475
CANX-2 06 Jul 21:57:18 22:01:17 40° 263° (W) 22:05:19 2200.000
GOMX 1 06 Jul 21:58:46 22:03:08 29° 266° (W) 22:07:14 467.674
PCSat 06 Jul 22:00:22 22:03:51 17° 14° (NNE) 22:07:24 145.827
GONETS M04 06 Jul 22:04:50 22:13:05 48° 271° (W) 22:21:13
AISAT 06 Jul 22:14:31 22:17:17 17° 58° (ENE) 22:20:10 437.250
FUNcube-1 06 Jul 22:15:49 22:19:51 51° 71° (ENE) 22:23:54 145.935
Cosmos 2499 06 Jul 22:22:15 22:30:01 68° 75° (ENE) 22:38:23 435.465 / 435.565
CUBEBUG 1 06 Jul 22:25:10 22:26:54 12° 55° (NE) 22:28:48 437.445
50 SAT 06 Jul 22:29:30 22:32:12 19° 62° (ENE) 22:34:59 437.505
DOVE 4 06 Jul 22:30:51 22:34:35 22° 269° (W) 22:38:03 437.250
M-CUBED/EXP-1 PRIME 06 Jul 22:31:22 22:35:26 46° 105° (ESE) 22:39:48 437.505
UWE-3 06 Jul 22:35:24 22:39:37 80° 257° (WSW) 22:43:48 435.000/436.395/437.385
SO-50 06 Jul 22:37:42 22:41:13 19° 11° (NNE) 22:44:45 436.795
SEEDS 06 Jul 22:38:31 22:41:50 22° 269° (W) 22:45:07 437.485
DELFI C3 06 Jul 22:38:59 22:43:00 78° 257° (WSW) 22:47:05 145.870
BRITE-PL 06 Jul 22:41:08 22:42:05 10° 278° (W) 22:42:43 437.365/2234.400
AAUSAT CUBESAT 2 06 Jul 22:42:31 22:46:06 27° 267° (W) 22:49:40 437.432
STRAND 1 06 Jul 22:49:14 22:52:43 18° 305° (NW) 22:56:03 437.568
ESTCUBE 1 06 Jul 22:55:08 22:58:47 25° 62° (ENE) 23:02:32 437.505/2401.250
CINEMA 3 06 Jul 22:57:08 23:00:40 23° 268° (W) 23:04:03 145.822/145.860
DX 1 06 Jul 23:00:14 23:04:34 62° 71° (ENE) 23:08:55 434.975-435.025
VELOX 1 06 Jul 23:01:16 23:05:23 38° 67° (ENE) 23:09:32 145.980
UNISAT 6 06 Jul 23:05:35 23:07:36 13° 86° (E) 23:09:50 437.425
COMPASS 1 06 Jul 23:12:56 23:15:02 13° 274° (W) 23:16:58 437.405
HUMSAT D 06 Jul 23:13:41 23:17:48 88° 255° (WSW) 23:21:56 437.325/437.525
SPROUT 06 Jul 23:16:58 23:18:34 12° 55° (NE) 23:20:21 437.525
UKube-1 06 Jul 23:17:01 23:21:22 82° 74° (ENE) 23:25:44 .
ZACube-1 06 Jul 23:17:18 23:21:14 39° 263° (W) 23:25:09 437.345
Oscar 11 06 Jul 23:20:38 23:24:13 24° 268° (W) 23:27:45 145.826/435.025
CUBEBUG 2 06 Jul 23:27:45 23:31:04 21° 269° (W) 23:34:16 437.445
AUBIESAT-1 06 Jul 23:29:09 23:33:17 60° 294° (WNW) 23:37:41 437.475
DUCHIFAT 1 06 Jul 23:39:34 23:40:41 11° 84° (E) 23:42:02 145.980
PCSat 06 Jul 23:43:46 23:48:49 38° 39° (NE) 23:53:53 145.827
TISAT 1 06 Jul 23:46:54 23:49:20 16° 58° (ENE) 23:51:55 437.305
POLYITAN 1 06 Jul 23:47:15 23:49:28 14° 87° (E) 23:51:51 437.675
ANTELSAT 06 Jul 23:48:48 23:52:46 32° 95° (E) 23:56:48 437.575/2403.000
HO-68 06 Jul 23:48:50 23:50:56 11° 283° (WNW) 23:52:32 435.675
AISAT 06 Jul 23:48:52 23:53:21 79° 256° (WSW) 23:57:51 437.250
FUNcube-1 06 Jul 23:53:27 23:56:31 19° 270° (W) 23:59:28 145.935
CUBEBUG 1 06 Jul 23:58:07 00:02:33 73° 73° (ENE) 00:06:59 437.445
TIGRISAT 06 Jul 23:59:50 00:03:57 39° 97° (E) 00:08:09 435.000
50 SAT 07 Jul 00:02:48 00:06:31 49° 260° (W) 00:10:16 437.505
GONETS M04 07 Jul 00:06:03 00:07:49 10° 294° (WNW) 00:08:59
M-CUBED/EXP-1 PRIME 07 Jul 00:06:34 00:10:05 26° 302° (WNW) 00:13:46 437.505
Cosmos 2491 07 Jul 00:07:54 00:11:05 12° 35° (NE) 00:14:39 435.465 / 435.565
QB50P2 07 Jul 00:15:34 00:19:08 26° 93° (E) 00:22:44 145.880/145.840
POPSAT HIP 1 07 Jul 00:15:37 00:19:08 25° 93° (E) 00:22:40 437.405
Cosmos 2499 07 Jul 00:16:00 00:22:46 32° 275° (W) 00:29:46 435.465 / 435.565
SO-50 07 Jul 00:18:20 00:23:01 39° 35° (NE) 00:27:41 436.795
ESTCUBE 1 07 Jul 00:30:59 00:35:25 50° 261° (W) 00:39:53 437.505/2401.250
VELOX 1 07 Jul 00:38:05 00:42:01 30° 265° (W) 00:45:57 145.980
DX 1 07 Jul 00:38:11 00:41:15 18° 271° (W) 00:44:13 434.975-435.025
UNISAT 6 07 Jul 00:40:39 00:45:03 85° 286° (WNW) 00:49:31 437.425
SPROUT 07 Jul 00:49:40 00:53:59 76° 74° (ENE) 00:58:18 437.525
HUMSAT D 07 Jul 00:53:16 00:54:16 11° 276° (W) 00:55:05 437.325/437.525
QB50P1 07 Jul 00:53:57 00:58:08 60° 101° (E) 01:02:17 145.935-145.965
UKube-1 07 Jul 00:55:54 00:58:09 13° 273° (W) 01:00:13 .
AUBIESAT-1 07 Jul 01:06:01 01:07:22 11° 311° (NW) 01:08:35 437.475
NANOSAT C BR1 07 Jul 01:07:02 01:11:16 80° 103° (ESE) 01:15:28 145.865
DUCHIFAT 1 07 Jul 01:13:00 01:17:14 88° 111° (ESE) 01:21:26 145.980
BUGSAT 1 07 Jul 01:17:43 01:21:47 68° 102° (ESE) 01:25:48 437.445
TISAT 1 07 Jul 01:20:22 01:24:37 79° 256° (WSW) 01:28:52 437.305
POLYITAN 1 07 Jul 01:21:43 01:25:57 73° 287° (WNW) 01:30:08 437.675
ANTELSAT 07 Jul 01:25:35 01:29:34 34° 294° (WNW) 01:33:35 437.575/2403.000
BEESAT 07 Jul 01:26:50 01:30:55 29° 63° (ENE) 01:35:05 436.000
PCSat 07 Jul 01:27:11 01:32:29 54° 240° (WSW) 01:37:44 145.827
AISAT 07 Jul 01:29:32 01:30:47 11° 276° (W) 01:31:47 437.250
CUBEBUG 1 07 Jul 01:36:45 01:39:28 15° 273° (W) 01:42:03 437.445
TIGRISAT 07 Jul 01:36:50 01:40:36 28° 295° (WNW) 01:44:23 435.000
AIST 1 07 Jul 01:39:29 01:40:22 11° 56° (NE) 01:41:28
SWISSCUBE 07 Jul 01:42:24 01:46:52 41° 66° (ENE) 01:51:24 437.505
RS-15 07 Jul 01:46:51 01:55:07 27° 104° (ESE) 02:03:59 29.354- 29.394
ITUPSAT 1 07 Jul 01:49:03 01:53:33 43° 67° (ENE) 01:58:08 437.325
POPSAT HIP 1 07 Jul 01:51:11 01:55:08 39° 292° (WNW) 01:59:03 437.405
QB50P2 07 Jul 01:51:13 01:55:09 38° 292° (WNW) 01:59:04 145.880/145.840
KKS-1 07 Jul 01:58:22 02:00:15 13° 54° (NE) 02:02:17 437.445
SO-50 07 Jul 01:58:56 02:03:45 52° 236° (SW) 02:08:31 436.795
Cosmos 2491 07 Jul 02:03:04 02:11:15 42° 65° (ENE) 02:19:26 435.465 / 435.565
Oscar 19 07 Jul 02:08:16 02:11:47 19° 88° (E) 02:15:26 437.125/150
UNISAT 6 07 Jul 02:18:58 02:21:15 14° 303° (WNW) 02:23:23 437.425
SPROUT 07 Jul 02:28:13 02:30:39 14° 273° (W) 02:32:55 437.525
QB50P1 07 Jul 02:30:37 02:33:38 19° 300° (WNW) 02:36:33 145.935-145.965
Gurwin Techsat 1B 07 Jul 02:37:52 02:39:20 11° 81° (E) 02:41:05 435.225
